time,lat,lon
20070808T12:20:19 ,       9.99700 ,     -84.2000
20070808T12:20:20 ,       9.99700 ,     -84.2000
20070808T12:20:21 ,       9.99800 ,     -84.2000
20070808T12:20:22 ,       9.99800 ,     -84.1990
20070808T12:20:23 ,       9.99800 ,     -84.1980
20070808T12:20:24 ,       9.99800 ,     -84.1980
20070808T12:20:25 ,       9.99800 ,     -84.1970
20070808T12:20:26 ,       9.99900 ,     -84.1970
20070808T12:20:27 ,       9.99900 ,     -84.1960
20070808T12:20:28 ,       9.99900 ,     -84.1950
20070808T12:20:29 ,       9.99900 ,     -84.1950
20070808T12:20:30 ,       9.99900 ,     -84.1940
20070808T12:20:31 ,       10.0000 ,     -84.1940
20070808T12:20:32 ,       10.0000 ,     -84.1930
20070808T12:20:33 ,       10.0000 ,     -84.1920
20070808T12:20:34 ,       10.0000 ,     -84.1920
20070808T12:20:35 ,       10.0000 ,     -84.1910
20070808T12:20:36 ,       10.0010 ,     -84.1900
20070808T12:20:37 ,       10.0010 ,     -84.1900
20070808T12:20:38 ,       10.0010 ,     -84.1890
20070808T12:20:39 ,       10.0010 ,     -84.1880
20070808T12:20:40 ,       10.0010 ,     -84.1880
20070808T12:20:41 ,       10.0010 ,     -84.1870
20070808T12:20:42 ,       10.0010 ,     -84.1870
20070808T12:20:43 ,       10.0010 ,     -84.1860
20070808T12:20:44 ,       10.0010 ,     -84.1850
20070808T12:20:45 ,       10.0010 ,     -84.1850
20070808T12:20:46 ,       10.0010 ,     -84.1840
20070808T12:20:47 ,       10.0010 ,     -84.1840
20070808T12:20:48 ,       10.0010 ,     -84.1830
20070808T12:20:49 ,       10.0010 ,     -84.1830
20070808T12:20:50 ,       10.0010 ,     -84.1820
20070808T12:20:51 ,       10.0000 ,     -84.1810
20070808T12:20:52 ,       10.0000 ,     -84.1810
20070808T12:20:53 ,       10.0000 ,     -84.1800
20070808T12:20:54 ,       10.0000 ,     -84.1790
20070808T12:20:55 ,       9.99900 ,     -84.1790
20070808T12:20:56 ,       9.99900 ,     -84.1780
20070808T12:20:57 ,       9.99900 ,     -84.1770
20070808T12:20:58 ,       9.99800 ,     -84.1770
20070808T12:20:59 ,       9.99800 ,     -84.1760
20070808T12:21:00 ,       9.99700 ,     -84.1760
20070808T12:21:01 ,       9.99700 ,     -84.1750
20070808T12:21:02 ,       9.99700 ,     -84.1740
20070808T12:21:03 ,       9.99600 ,     -84.1740
20070808T12:21:04 ,       9.99500 ,     -84.1730
20070808T12:21:05 ,       9.99500 ,     -84.1730
20070808T12:21:06 ,       9.99400 ,     -84.1720
20070808T12:21:07 ,       9.99400 ,     -84.1720
20070808T12:21:08 ,       9.99300 ,     -84.1710
20070808T12:21:09 ,       9.99300 ,     -84.1710
20070808T12:21:10 ,       9.99200 ,     -84.1710
20070808T12:21:11 ,       9.99100 ,     -84.1700
20070808T12:21:12 ,       9.99100 ,     -84.1700
20070808T12:21:13 ,       9.99000 ,     -84.1700
20070808T12:21:14 ,       9.98900 ,     -84.1690
20070808T12:21:15 ,       9.98900 ,     -84.1690
20070808T12:21:16 ,       9.98800 ,     -84.1690
20070808T12:21:17 ,       9.98700 ,     -84.1680
20070808T12:21:18 ,       9.98600 ,     -84.1680
20070808T12:21:19 ,       9.98600 ,     -84.1680
20070808T12:21:20 ,       9.98500 ,     -84.1680
20070808T12:21:21 ,       9.98400 ,     -84.1680
20070808T12:21:22 ,       9.98300 ,     -84.1680
20070808T12:21:23 ,       9.98300 ,     -84.1680
20070808T12:21:24 ,       9.98200 ,     -84.1670
20070808T12:21:25 ,       9.98100 ,     -84.1670
20070808T12:21:26 ,       9.98000 ,     -84.1670
20070808T12:21:27 ,       9.97900 ,     -84.1670
20070808T12:21:28 ,       9.97900 ,     -84.1680
20070808T12:21:29 ,       9.97800 ,     -84.1680
20070808T12:21:30 ,       9.97700 ,     -84.1680
20070808T12:21:31 ,       9.97600 ,     -84.1680
20070808T12:21:32 ,       9.97600 ,     -84.1680
20070808T12:21:33 ,       9.97500 ,     -84.1680
20070808T12:21:34 ,       9.97400 ,     -84.1680
20070808T12:21:35 ,       9.97300 ,     -84.1680
20070808T12:21:36 ,       9.97200 ,     -84.1690
20070808T12:21:37 ,       9.97200 ,     -84.1690
20070808T12:21:38 ,       9.97100 ,     -84.1690
20070808T12:21:39 ,       9.97000 ,     -84.1700
20070808T12:21:40 ,       9.96900 ,     -84.1700
20070808T12:21:41 ,       9.96800 ,     -84.1700
20070808T12:21:42 ,       9.96800 ,     -84.1710
20070808T12:21:43 ,       9.96700 ,     -84.1710
20070808T12:21:44 ,       9.96600 ,     -84.1710
20070808T12:21:45 ,       9.96600 ,     -84.1720
20070808T12:21:46 ,       9.96500 ,     -84.1720
20070808T12:21:47 ,       9.96400 ,     -84.1730
20070808T12:21:48 ,       9.96300 ,     -84.1730
20070808T12:21:49 ,       9.96300 ,     -84.1740
20070808T12:21:50 ,       9.96200 ,     -84.1740
20070808T12:21:51 ,       9.96100 ,     -84.1750
20070808T12:21:52 ,       9.96100 ,     -84.1760
20070808T12:21:53 ,       9.96000 ,     -84.1760
20070808T12:21:54 ,       9.96000 ,     -84.1770
20070808T12:21:55 ,       9.95900 ,     -84.1780
20070808T12:21:56 ,       9.95800 ,     -84.1780
20070808T12:21:57 ,       9.95800 ,     -84.1790
20070808T12:21:58 ,       9.95700 ,     -84.1800
20070808T12:21:59 ,       9.95700 ,     -84.1810
20070808T12:22:00 ,       9.95600 ,     -84.1810
20070808T12:22:01 ,       9.95600 ,     -84.1820
20070808T12:22:02 ,       9.95600 ,     -84.1830
20070808T12:22:03 ,       9.95500 ,     -84.1840
20070808T12:22:04 ,       9.95500 ,     -84.1840
20070808T12:22:05 ,       9.95400 ,     -84.1850
20070808T12:22:06 ,       9.95400 ,     -84.1860
20070808T12:22:07 ,       9.95400 ,     -84.1870
20070808T12:22:08 ,       9.95300 ,     -84.1880
20070808T12:22:09 ,       9.95300 ,     -84.1890
20070808T12:22:10 ,       9.95300 ,     -84.1900
20070808T12:22:11 ,       9.95300 ,     -84.1910
20070808T12:22:12 ,       9.95200 ,     -84.1910
20070808T12:22:13 ,       9.95200 ,     -84.1920
20070808T12:22:14 ,       9.95200 ,     -84.1930
20070808T12:22:15 ,       9.95200 ,     -84.1940
20070808T12:22:16 ,       9.95200 ,     -84.1950
20070808T12:22:17 ,       9.95200 ,     -84.1960
20070808T12:22:18 ,       9.95200 ,     -84.1970
20070808T12:22:19 ,       9.95200 ,     -84.1980
20070808T12:22:20 ,       9.95200 ,     -84.1990
20070808T12:22:21 ,       9.95200 ,     -84.2000
20070808T12:22:22 ,       9.95200 ,     -84.2010
20070808T12:22:23 ,       9.95200 ,     -84.2010
20070808T12:22:24 ,       9.95200 ,     -84.2020
20070808T12:22:25 ,       9.95200 ,     -84.2030
20070808T12:22:26 ,       9.95200 ,     -84.2040
20070808T12:22:27 ,       9.95300 ,     -84.2050
20070808T12:22:28 ,       9.95300 ,     -84.2060
20070808T12:22:29 ,       9.95300 ,     -84.2070
20070808T12:22:30 ,       9.95300 ,     -84.2080
20070808T12:22:31 ,       9.95400 ,     -84.2090
20070808T12:22:32 ,       9.95400 ,     -84.2100
20070808T12:22:33 ,       9.95400 ,     -84.2110
20070808T12:22:34 ,       9.95500 ,     -84.2120
20070808T12:22:35 ,       9.95500 ,     -84.2130
20070808T12:22:36 ,       9.95600 ,     -84.2140
20070808T12:22:37 ,       9.95600 ,     -84.2140
20070808T12:22:38 ,       9.95700 ,     -84.2150
20070808T12:22:39 ,       9.95700 ,     -84.2160
20070808T12:22:40 ,       9.95800 ,     -84.2170
20070808T12:22:41 ,       9.95800 ,     -84.2170
20070808T12:22:42 ,       9.95900 ,     -84.2180
20070808T12:22:43 ,       9.95900 ,     -84.2190
20070808T12:22:44 ,       9.96000 ,     -84.2190
20070808T12:22:45 ,       9.96100 ,     -84.2200
20070808T12:22:46 ,       9.96100 ,     -84.2210
20070808T12:22:47 ,       9.96200 ,     -84.2210
20070808T12:22:48 ,       9.96300 ,     -84.2220
20070808T12:22:49 ,       9.96400 ,     -84.2230
20070808T12:22:50 ,       9.96400 ,     -84.2230
20070808T12:22:51 ,       9.96500 ,     -84.2240
20070808T12:22:52 ,       9.96600 ,     -84.2250
20070808T12:22:53 ,       9.96700 ,     -84.2250
20070808T12:22:54 ,       9.96800 ,     -84.2260
20070808T12:22:55 ,       9.96800 ,     -84.2260
20070808T12:22:56 ,       9.96900 ,     -84.2270
20070808T12:22:57 ,       9.97000 ,     -84.2270
20070808T12:22:58 ,       9.97100 ,     -84.2270
20070808T12:22:59 ,       9.97200 ,     -84.2280
20070808T12:23:00 ,       9.97300 ,     -84.2280
20070808T12:23:01 ,       9.97400 ,     -84.2280
20070808T12:23:02 ,       9.97500 ,     -84.2290
20070808T12:23:03 ,       9.97600 ,     -84.2290
20070808T12:23:04 ,       9.97700 ,     -84.2290
20070808T12:23:05 ,       9.97800 ,     -84.2290
20070808T12:23:06 ,       9.97900 ,     -84.2300
20070808T12:23:07 ,       9.98000 ,     -84.2300
20070808T12:23:08 ,       9.98100 ,     -84.2300
20070808T12:23:09 ,       9.98200 ,     -84.2300
20070808T12:23:10 ,       9.98300 ,     -84.2300
20070808T12:23:11 ,       9.98400 ,     -84.2300
20070808T12:23:12 ,       9.98500 ,     -84.2300
20070808T12:23:13 ,       9.98600 ,     -84.2300
20070808T12:23:14 ,       9.98700 ,     -84.2300
20070808T12:23:15 ,       9.98800 ,     -84.2300
20070808T12:23:16 ,       9.98900 ,     -84.2300
20070808T12:23:17 ,       9.99000 ,     -84.2300
20070808T12:23:18 ,       9.99100 ,     -84.2300
20070808T12:23:19 ,       9.99200 ,     -84.2290
20070808T12:23:20 ,       9.99300 ,     -84.2290
20070808T12:23:21 ,       9.99400 ,     -84.2290
20070808T12:23:22 ,       9.99500 ,     -84.2290
20070808T12:23:23 ,       9.99600 ,     -84.2280
20070808T12:23:24 ,       9.99700 ,     -84.2280
20070808T12:23:25 ,       9.99800 ,     -84.2280
20070808T12:23:26 ,       9.99900 ,     -84.2280
20070808T12:23:27 ,       10.0000 ,     -84.2270
20070808T12:23:28 ,       10.0000 ,     -84.2270
20070808T12:23:29 ,       10.0010 ,     -84.2260
20070808T12:23:30 ,       10.0020 ,     -84.2260
20070808T12:23:31 ,       10.0030 ,     -84.2250
20070808T12:23:32 ,       10.0040 ,     -84.2250
20070808T12:23:33 ,       10.0050 ,     -84.2250
20070808T12:23:34 ,       10.0060 ,     -84.2240
20070808T12:23:35 ,       10.0070 ,     -84.2230
20070808T12:23:36 ,       10.0080 ,     -84.2230
20070808T12:23:37 ,       10.0080 ,     -84.2220
20070808T12:23:38 ,       10.0090 ,     -84.2220
20070808T12:23:39 ,       10.0100 ,     -84.2210
20070808T12:23:40 ,       10.0110 ,     -84.2200
20070808T12:23:41 ,       10.0120 ,     -84.2200
20070808T12:23:42 ,       10.0120 ,     -84.2190
20070808T12:23:43 ,       10.0130 ,     -84.2180
20070808T12:23:44 ,       10.0140 ,     -84.2180
20070808T12:23:45 ,       10.0150 ,     -84.2170
20070808T12:23:46 ,       10.0150 ,     -84.2170
20070808T12:23:47 ,       10.0160 ,     -84.2160
20070808T12:23:48 ,       10.0170 ,     -84.2150
20070808T12:23:49 ,       10.0170 ,     -84.2140
20070808T12:23:50 ,       10.0180 ,     -84.2130
20070808T12:23:51 ,       10.0180 ,     -84.2120
20070808T12:23:52 ,       10.0190 ,     -84.2120
20070808T12:23:53 ,       10.0190 ,     -84.2110
20070808T12:23:54 ,       10.0200 ,     -84.2100
20070808T12:23:55 ,       10.0200 ,     -84.2090
20070808T12:23:56 ,       10.0210 ,     -84.2080
20070808T12:23:57 ,       10.0210 ,     -84.2070
20070808T12:23:58 ,       10.0220 ,     -84.2060
20070808T12:23:59 ,       10.0220 ,     -84.2050
20070808T12:24:00 ,       10.0220 ,     -84.2040
20070808T12:24:01 ,       10.0220 ,     -84.2030
20070808T12:24:02 ,       10.0230 ,     -84.2020
20070808T12:24:03 ,       10.0230 ,     -84.2010
20070808T12:24:04 ,       10.0230 ,     -84.2000
20070808T12:24:05 ,       10.0230 ,     -84.1990
20070808T12:24:06 ,       10.0230 ,     -84.1980
20070808T12:24:07 ,       10.0230 ,     -84.1970
20070808T12:24:08 ,       10.0230 ,     -84.1960
20070808T12:24:09 ,       10.0230 ,     -84.1950
20070808T12:24:10 ,       10.0230 ,     -84.1940
20070808T12:24:11 ,       10.0230 ,     -84.1930
20070808T12:24:12 ,       10.0230 ,     -84.1920
20070808T12:24:13 ,       10.0230 ,     -84.1910
20070808T12:24:14 ,       10.0230 ,     -84.1900
20070808T12:24:15 ,       10.0230 ,     -84.1890
20070808T12:24:16 ,       10.0230 ,     -84.1880
20070808T12:24:17 ,       10.0220 ,     -84.1870
20070808T12:24:18 ,       10.0220 ,     -84.1860
20070808T12:24:19 ,       10.0220 ,     -84.1850
20070808T12:24:20 ,       10.0220 ,     -84.1840
20070808T12:24:21 ,       10.0210 ,     -84.1840
20070808T12:24:22 ,       10.0210 ,     -84.1830
20070808T12:24:23 ,       10.0210 ,     -84.1820
20070808T12:24:24 ,       10.0200 ,     -84.1810
20070808T12:24:25 ,       10.0200 ,     -84.1800
20070808T12:24:26 ,       10.0200 ,     -84.1800
20070808T12:24:27 ,       10.0190 ,     -84.1790
20070808T12:24:28 ,       10.0190 ,     -84.1780
20070808T12:24:29 ,       10.0180 ,     -84.1770
20070808T12:24:30 ,       10.0180 ,     -84.1760
20070808T12:24:31 ,       10.0170 ,     -84.1750
20070808T12:24:32 ,       10.0170 ,     -84.1750
20070808T12:24:33 ,       10.0160 ,     -84.1740
20070808T12:24:34 ,       10.0150 ,     -84.1730
20070808T12:24:35 ,       10.0150 ,     -84.1720
20070808T12:24:36 ,       10.0140 ,     -84.1720
20070808T12:24:37 ,       10.0130 ,     -84.1710
20070808T12:24:38 ,       10.0130 ,     -84.1700
20070808T12:24:39 ,       10.0120 ,     -84.1690
20070808T12:24:40 ,       10.0110 ,     -84.1690
20070808T12:24:41 ,       10.0110 ,     -84.1680
20070808T12:24:42 ,       10.0100 ,     -84.1680
20070808T12:24:43 ,       10.0090 ,     -84.1670
20070808T12:24:44 ,       10.0080 ,     -84.1670
20070808T12:24:45 ,       10.0070 ,     -84.1660
20070808T12:24:46 ,       10.0060 ,     -84.1660
20070808T12:24:47 ,       10.0060 ,     -84.1650
20070808T12:24:48 ,       10.0050 ,     -84.1650
20070808T12:24:49 ,       10.0040 ,     -84.1640
20070808T12:24:50 ,       10.0030 ,     -84.1640
20070808T12:24:51 ,       10.0020 ,     -84.1630
20070808T12:24:52 ,       10.0010 ,     -84.1630
20070808T12:24:53 ,       10.0000 ,     -84.1630
20070808T12:24:54 ,       9.99900 ,     -84.1620
20070808T12:24:55 ,       9.99800 ,     -84.1620
20070808T12:24:56 ,       9.99700 ,     -84.1620
20070808T12:24:57 ,       9.99600 ,     -84.1620
20070808T12:24:58 ,       9.99500 ,     -84.1610
20070808T12:24:59 ,       9.99400 ,     -84.1610
20070808T12:25:00 ,       9.99300 ,     -84.1610
20070808T12:25:01 ,       9.99200 ,     -84.1610
20070808T12:25:02 ,       9.99100 ,     -84.1610
20070808T12:25:03 ,       9.99000 ,     -84.1610
20070808T12:25:04 ,       9.98900 ,     -84.1600
20070808T12:25:05 ,       9.98800 ,     -84.1600
20070808T12:25:06 ,       9.98700 ,     -84.1600
20070808T12:25:07 ,       9.98600 ,     -84.1600
20070808T12:25:08 ,       9.98400 ,     -84.1600
20070808T12:25:09 ,       9.98300 ,     -84.1600
20070808T12:25:10 ,       9.98200 ,     -84.1600
20070808T12:25:11 ,       9.98100 ,     -84.1600
20070808T12:25:12 ,       9.98000 ,     -84.1600
20070808T12:25:13 ,       9.97900 ,     -84.1600
20070808T12:25:14 ,       9.97800 ,     -84.1600
20070808T12:25:15 ,       9.97700 ,     -84.1600
20070808T12:25:16 ,       9.97600 ,     -84.1600
20070808T12:25:17 ,       9.97500 ,     -84.1600
20070808T12:25:18 ,       9.97400 ,     -84.1600
20070808T12:25:19 ,       9.97300 ,     -84.1600
20070808T12:25:20 ,       9.97200 ,     -84.1600
20070808T12:25:21 ,       9.97100 ,     -84.1600
20070808T12:25:22 ,       9.97000 ,     -84.1600
20070808T12:25:23 ,       9.96900 ,     -84.1600
20070808T12:25:24 ,       9.96800 ,     -84.1600
20070808T12:25:25 ,       9.96700 ,     -84.1600
20070808T12:25:26 ,       9.96600 ,     -84.1600
20070808T12:25:27 ,       9.96500 ,     -84.1600
20070808T12:25:28 ,       9.96400 ,     -84.1600
20070808T12:25:29 ,       9.96300 ,     -84.1600
20070808T12:25:30 ,       9.96200 ,     -84.1600
20070808T12:25:31 ,       9.96100 ,     -84.1610
20070808T12:25:32 ,       9.95900 ,     -84.1610
20070808T12:25:33 ,       9.95800 ,     -84.1610
20070808T12:25:34 ,       9.95700 ,     -84.1610
20070808T12:25:35 ,       9.95600 ,     -84.1610
20070808T12:25:36 ,       9.95500 ,     -84.1610
20070808T12:25:37 ,       9.95400 ,     -84.1610
20070808T12:25:38 ,       9.95300 ,     -84.1610
20070808T12:25:39 ,       9.95200 ,     -84.1610
20070808T12:25:40 ,       9.95100 ,     -84.1610
20070808T12:25:41 ,       9.95000 ,     -84.1610
20070808T12:25:42 ,       9.94900 ,     -84.1610
20070808T12:25:43 ,       9.94800 ,     -84.1610
20070808T12:25:44 ,       9.94700 ,     -84.1610
20070808T12:25:45 ,       9.94600 ,     -84.1620
20070808T12:25:46 ,       9.94500 ,     -84.1620
20070808T12:25:47 ,       9.94400 ,     -84.1620
20070808T12:25:48 ,       9.94300 ,     -84.1620
20070808T12:25:49 ,       9.94100 ,     -84.1620
20070808T12:25:50 ,       9.94000 ,     -84.1620
20070808T12:25:51 ,       9.93900 ,     -84.1620
20070808T12:25:52 ,       9.93800 ,     -84.1620
20070808T12:25:53 ,       9.93700 ,     -84.1630
20070808T12:25:54 ,       9.93600 ,     -84.1630
20070808T12:25:55 ,       9.93500 ,     -84.1630
20070808T12:25:56 ,       9.93400 ,     -84.1630
20070808T12:25:57 ,       9.93300 ,     -84.1630
20070808T12:25:58 ,       9.93200 ,     -84.1630
20070808T12:25:59 ,       9.93100 ,     -84.1630
20070808T12:26:00 ,       9.93000 ,     -84.1630
20070808T12:26:01 ,       9.92900 ,     -84.1630
20070808T12:26:02 ,       9.92800 ,     -84.1630
20070808T12:26:03 ,       9.92600 ,     -84.1640
20070808T12:26:04 ,       9.92500 ,     -84.1640
20070808T12:26:05 ,       9.92400 ,     -84.1640
20070808T12:26:06 ,       9.92300 ,     -84.1640
20070808T12:26:07 ,       9.92200 ,     -84.1640
20070808T12:26:08 ,       9.92100 ,     -84.1640
20070808T12:26:09 ,       9.92000 ,     -84.1640
20070808T12:26:10 ,       9.91900 ,     -84.1640
20070808T12:26:11 ,       9.91800 ,     -84.1640
20070808T12:26:12 ,       9.91700 ,     -84.1640
20070808T12:26:13 ,       9.91600 ,     -84.1640
20070808T12:26:14 ,       9.91500 ,     -84.1640
20070808T12:26:15 ,       9.91300 ,     -84.1640
20070808T12:26:16 ,       9.91200 ,     -84.1640
20070808T12:26:17 ,       9.91100 ,     -84.1640
20070808T12:26:18 ,       9.91000 ,     -84.1640
20070808T12:26:19 ,       9.90900 ,     -84.1650
20070808T12:26:20 ,       9.90800 ,     -84.1650
20070808T12:26:21 ,       9.90700 ,     -84.1650
20070808T12:26:22 ,       9.90600 ,     -84.1650
20070808T12:26:23 ,       9.90500 ,     -84.1650
20070808T12:26:24 ,       9.90400 ,     -84.1650
20070808T12:26:25 ,       9.90300 ,     -84.1650
20070808T12:26:26 ,       9.90100 ,     -84.1650
20070808T12:26:27 ,       9.90000 ,     -84.1650
20070808T12:26:28 ,       9.89900 ,     -84.1650
20070808T12:26:29 ,       9.89800 ,     -84.1650
20070808T12:26:30 ,       9.89700 ,     -84.1650
20070808T12:26:31 ,       9.89600 ,     -84.1650
20070808T12:26:32 ,       9.89500 ,     -84.1650
20070808T12:26:33 ,       9.89400 ,     -84.1650
20070808T12:26:34 ,       9.89200 ,     -84.1650
20070808T12:26:35 ,       9.89100 ,     -84.1650
20070808T12:26:36 ,       9.89000 ,     -84.1650
20070808T12:26:37 ,       9.88900 ,     -84.1650
20070808T12:26:38 ,       9.88800 ,     -84.1650
20070808T12:26:39 ,       9.88700 ,     -84.1650
20070808T12:26:40 ,       9.88600 ,     -84.1650
20070808T12:26:41 ,       9.88500 ,     -84.1650
20070808T12:26:42 ,       9.88300 ,     -84.1650
20070808T12:26:43 ,       9.88200 ,     -84.1650
20070808T12:26:44 ,       9.88100 ,     -84.1650
20070808T12:26:45 ,       9.88000 ,     -84.1660
20070808T12:26:46 ,       9.87900 ,     -84.1660
20070808T12:26:47 ,       9.87800 ,     -84.1660
20070808T12:26:48 ,       9.87700 ,     -84.1660
20070808T12:26:49 ,       9.87500 ,     -84.1660
20070808T12:26:50 ,       9.87400 ,     -84.1660
20070808T12:26:51 ,       9.87300 ,     -84.1660
20070808T12:26:52 ,       9.87200 ,     -84.1660
20070808T12:26:53 ,       9.87100 ,     -84.1660
20070808T12:26:54 ,       9.87000 ,     -84.1660
20070808T12:26:55 ,       9.86800 ,     -84.1660
20070808T12:26:56 ,       9.86700 ,     -84.1660
20070808T12:26:57 ,       9.86600 ,     -84.1660
20070808T12:26:58 ,       9.86500 ,     -84.1660
20070808T12:26:59 ,       9.86400 ,     -84.1660
20070808T12:27:00 ,       9.86200 ,     -84.1660
20070808T12:27:01 ,       9.86100 ,     -84.1660
20070808T12:27:02 ,       9.86000 ,     -84.1660
20070808T12:27:03 ,       9.85900 ,     -84.1660
20070808T12:27:04 ,       9.85800 ,     -84.1660
20070808T12:27:05 ,       9.85600 ,     -84.1660
20070808T12:27:06 ,       9.85500 ,     -84.1660
20070808T12:27:07 ,       9.85400 ,     -84.1660
20070808T12:27:08 ,       9.85300 ,     -84.1660
20070808T12:27:09 ,       9.85200 ,     -84.1660
20070808T12:27:10 ,       9.85000 ,     -84.1660
20070808T12:27:11 ,       9.84900 ,     -84.1660
20070808T12:27:12 ,       9.84800 ,     -84.1660
20070808T12:27:13 ,       9.84700 ,     -84.1670
20070808T12:27:14 ,       9.84600 ,     -84.1670
20070808T12:27:15 ,       9.84400 ,     -84.1670
20070808T12:27:16 ,       9.84300 ,     -84.1670
20070808T12:27:17 ,       9.84200 ,     -84.1670
20070808T12:27:18 ,       9.84100 ,     -84.1670
20070808T12:27:19 ,       9.84000 ,     -84.1670
20070808T12:27:20 ,       9.83800 ,     -84.1670
20070808T12:27:21 ,       9.83700 ,     -84.1670
20070808T12:27:22 ,       9.83600 ,     -84.1670
20070808T12:27:23 ,       9.83500 ,     -84.1670
20070808T12:27:24 ,       9.83400 ,     -84.1670
20070808T12:27:25 ,       9.83300 ,     -84.1670
20070808T12:27:26 ,       9.83100 ,     -84.1670
20070808T12:27:27 ,       9.83000 ,     -84.1670
20070808T12:27:28 ,       9.82900 ,     -84.1670
20070808T12:27:29 ,       9.82800 ,     -84.1670
20070808T12:27:30 ,       9.82700 ,     -84.1670
20070808T12:27:31 ,       9.82500 ,     -84.1670
20070808T12:27:32 ,       9.82400 ,     -84.1670
20070808T12:27:33 ,       9.82300 ,     -84.1670
20070808T12:27:34 ,       9.82200 ,     -84.1670
20070808T12:27:35 ,       9.82100 ,     -84.1670
20070808T12:27:36 ,       9.82000 ,     -84.1670
20070808T12:27:37 ,       9.81800 ,     -84.1670
20070808T12:27:38 ,       9.81700 ,     -84.1670
20070808T12:27:39 ,       9.81600 ,     -84.1670
20070808T12:27:40 ,       9.81500 ,     -84.1670
20070808T12:27:41 ,       9.81400 ,     -84.1670
20070808T12:27:42 ,       9.81300 ,     -84.1670
20070808T12:27:43 ,       9.81100 ,     -84.1670
20070808T12:27:44 ,       9.81000 ,     -84.1670
20070808T12:27:45 ,       9.80900 ,     -84.1670
20070808T12:27:46 ,       9.80800 ,     -84.1670
20070808T12:27:47 ,       9.80700 ,     -84.1670
20070808T12:27:48 ,       9.80600 ,     -84.1680
20070808T12:27:49 ,       9.80400 ,     -84.1680
20070808T12:27:50 ,       9.80300 ,     -84.1680
20070808T12:27:51 ,       9.80200 ,     -84.1680
20070808T12:27:52 ,       9.80100 ,     -84.1680
20070808T12:27:53 ,       9.80000 ,     -84.1680
20070808T12:27:54 ,       9.79900 ,     -84.1680
20070808T12:27:55 ,       9.79800 ,     -84.1680
20070808T12:27:56 ,       9.79600 ,     -84.1680
20070808T12:27:57 ,       9.79500 ,     -84.1680
20070808T12:27:58 ,       9.79400 ,     -84.1680
20070808T12:27:59 ,       9.79300 ,     -84.1680
20070808T12:28:00 ,       9.79200 ,     -84.1680
20070808T12:28:01 ,       9.79100 ,     -84.1690
20070808T12:28:02 ,       9.79000 ,     -84.1690
20070808T12:28:03 ,       9.78800 ,     -84.1690
20070808T12:28:04 ,       9.78700 ,     -84.1690
20070808T12:28:05 ,       9.78600 ,     -84.1690
20070808T12:28:06 ,       9.78500 ,     -84.1690
20070808T12:28:07 ,       9.78400 ,     -84.1690
20070808T12:28:08 ,       9.78300 ,     -84.1690
20070808T12:28:09 ,       9.78200 ,     -84.1690
20070808T12:28:10 ,       9.78100 ,     -84.1690
20070808T12:28:11 ,       9.77900 ,     -84.1690
20070808T12:28:12 ,       9.77800 ,     -84.1690
20070808T12:28:13 ,       9.77700 ,     -84.1690
20070808T12:28:14 ,       9.77600 ,     -84.1700
20070808T12:28:15 ,       9.77500 ,     -84.1700
20070808T12:28:16 ,       9.77400 ,     -84.1700
20070808T12:28:17 ,       9.77300 ,     -84.1700
20070808T12:28:18 ,       9.77200 ,     -84.1700
20070808T12:28:19 ,       9.77100 ,     -84.1700
20070808T12:28:20 ,       9.77000 ,     -84.1700
20070808T12:28:21 ,       9.76800 ,     -84.1700
20070808T12:28:22 ,       9.76700 ,     -84.1700
20070808T12:28:23 ,       9.76600 ,     -84.1700
20070808T12:28:24 ,       9.76500 ,     -84.1700
20070808T12:28:25 ,       9.76400 ,     -84.1710
20070808T12:28:26 ,       9.76300 ,     -84.1710
20070808T12:28:27 ,       9.76200 ,     -84.1710